EDW22 MDPP-MKJS

Flight info

Callsign EDW22
Flight time N/A
Altitude 31000
Route RETAK3C RETAK UM348 ALBBE DCT BODLO DCT BYGON UL599 MLY A301 SAVEM UW6 SIA LENAR7
Aircraft A359/H-SABDE2E3GHIJ2J3J4J5M1P2RWXYZ/LB1D1

Departure

Time N/A
Airport Gregorio Luperon International Airport (MDPP)

Arrival

Time 2026-05-06 14:50
Airport Sangster International Airport (MKJS)
Time Latitude Longitude Altitude Speed Heading
2026-05-06 13:58 20.26647 -74.11224 31086 ft 448 kts 233°
2026-05-06 13:58 20.24569 -74.13654 31092 ft 449 kts 234°
2026-05-06 13:58 20.20363 -74.18574 31087 ft 449 kts 233°
2026-05-06 13:59 20.16164 -74.23483 31091 ft 450 kts 233°
2026-05-06 13:59 20.11945 -74.28407 31094 ft 449 kts 233°
2026-05-06 14:00 20.07733 -74.33321 31085 ft 448 kts 233°
2026-05-06 14:00 20.03540 -74.38212 31082 ft 449 kts 233°
2026-05-06 14:01 19.99342 -74.43100 31076 ft 448 kts 233°
2026-05-06 14:01 19.95135 -74.48000 31072 ft 450 kts 233°
2026-05-06 14:02 19.90901 -74.52922 31071 ft 449 kts 233°
2026-05-06 14:02 19.86683 -74.57800 31069 ft 450 kts 233°
2026-05-06 14:03 19.82454 -74.62679 31069 ft 450 kts 233°
2026-05-06 14:03 19.78205 -74.67609 31069 ft 451 kts 233°
2026-05-06 14:04 19.74002 -74.72502 31066 ft 450 kts 233°
2026-05-06 14:04 19.69783 -74.77398 31067 ft 450 kts 233°
2026-05-06 14:05 19.65545 -74.82305 31066 ft 450 kts 232°
2026-05-06 14:05 19.61325 -74.87186 31062 ft 451 kts 232°
2026-05-06 14:06 19.57070 -74.92102 31064 ft 451 kts 232°
2026-05-06 14:06 19.52827 -74.97002 31062 ft 451 kts 232°
2026-05-06 14:07 19.48595 -75.01887 31062 ft 451 kts 232°
2026-05-06 14:07 19.44327 -75.06800 31062 ft 451 kts 232°
2026-05-06 14:08 19.40098 -75.11655 31059 ft 451 kts 232°
2026-05-06 14:08 19.35829 -75.16557 31063 ft 451 kts 232°
2026-05-06 14:09 19.31595 -75.21420 31064 ft 451 kts 232°
2026-05-06 14:09 19.27341 -75.26302 31058 ft 450 kts 232°
2026-05-06 14:10 19.23090 -75.31176 31065 ft 451 kts 232°
2026-05-06 14:10 19.18830 -75.36058 31061 ft 450 kts 232°
2026-05-06 14:11 19.14599 -75.40904 31063 ft 450 kts 232°
2026-05-06 14:11 19.10335 -75.45783 31063 ft 450 kts 232°
2026-05-06 14:12 19.06102 -75.50625 31059 ft 450 kts 232°
2026-05-06 14:12 19.01850 -75.55482 31062 ft 450 kts 231°
2026-05-06 14:13 18.97570 -75.60367 31062 ft 450 kts 231°
2026-05-06 14:13 18.93319 -75.65218 31060 ft 450 kts 231°
2026-05-06 14:14 18.89091 -75.70058 31059 ft 450 kts 231°
2026-05-06 14:14 18.84833 -75.74889 31060 ft 450 kts 231°
2026-05-06 14:15 18.80560 -75.79736 31063 ft 451 kts 231°
2026-05-06 14:15 18.76254 -75.84577 31060 ft 451 kts 231°
2026-05-06 14:16 18.71992 -75.89371 31061 ft 450 kts 230°
2026-05-06 14:16 18.67705 -75.94190 31061 ft 450 kts 230°
2026-05-06 14:17 18.63420 -75.99010 31060 ft 450 kts 230°
2026-05-06 14:17 18.59129 -76.03836 31064 ft 450 kts 231°
2026-05-06 14:18 18.54864 -76.08625 31061 ft 449 kts 231°
2026-05-06 14:18 18.50604 -76.13411 31061 ft 449 kts 230°
2026-05-06 14:19 18.46345 -76.18185 31057 ft 435 kts 230°
2026-05-06 14:19 18.44325 -76.20448 31056 ft 421 kts 231°
2026-05-06 14:19 18.42338 -76.22672 31070 ft 417 kts 230°
2026-05-06 14:20 18.40309 -76.24933 31061 ft 428 kts 230°
2026-05-06 14:20 18.38260 -76.27219 31062 ft 438 kts 230°
2026-05-06 14:20 18.34002 -76.31975 31055 ft 449 kts 230°
2026-05-06 14:21 18.29731 -76.36748 31056 ft 449 kts 230°
2026-05-06 14:21 18.25455 -76.41527 31054 ft 449 kts 230°
2026-05-06 14:22 18.21191 -76.46291 30980 ft 445 kts 230°
2026-05-06 14:22 18.19078 -76.48651 30574 ft 443 kts 230°
2026-05-06 14:22 18.16975 -76.51002 30005 ft 443 kts 230°
2026-05-06 14:23 18.14871 -76.53355 29504 ft 442 kts 230°
2026-05-06 14:23 18.12764 -76.55708 28964 ft 442 kts 230°
2026-05-06 14:23 18.10639 -76.58079 28349 ft 444 kts 230°
2026-05-06 14:23 18.08543 -76.60421 27736 ft 445 kts 230°
2026-05-06 14:24 18.06421 -76.62789 27142 ft 447 kts 230°
2026-05-06 14:24 18.04289 -76.65166 26573 ft 447 kts 229°
2026-05-06 14:24 18.02160 -76.67545 26006 ft 447 kts 230°
2026-05-06 14:24 18.00164 -76.70040 25531 ft 439 kts 242°
2026-05-06 14:25 17.99078 -76.72918 25132 ft 422 kts 264°
2026-05-06 14:25 17.98978 -76.75914 24778 ft 406 kts 283°
2026-05-06 14:25 17.99772 -76.78705 24316 ft 393 kts 301°
2026-05-06 14:25 18.01286 -76.81016 23857 ft 382 kts 317°
2026-05-06 14:26 18.03335 -76.82713 23395 ft 373 kts 333°
2026-05-06 14:26 18.05672 -76.83897 22952 ft 369 kts 337°
2026-05-06 14:26 18.07982 -76.85008 22475 ft 368 kts 337°
2026-05-06 14:26 18.10325 -76.86135 22029 ft 366 kts 337°
2026-05-06 14:27 18.12626 -76.87246 21613 ft 364 kts 336°
2026-05-06 14:27 18.14939 -76.88365 21169 ft 364 kts 336°
2026-05-06 14:27 18.17238 -76.89479 20721 ft 363 kts 336°
2026-05-06 14:27 18.19533 -76.90594 20279 ft 362 kts 336°
2026-05-06 14:28 18.21788 -76.91691 19850 ft 361 kts 336°
2026-05-06 14:28 18.24073 -76.92802 19397 ft 360 kts 336°
2026-05-06 14:28 18.26337 -76.93906 18973 ft 359 kts 335°
2026-05-06 14:28 18.28630 -76.95022 18532 ft 358 kts 335°
2026-05-06 14:29 18.30865 -76.96111 18101 ft 357 kts 335°
2026-05-06 14:29 18.33146 -76.97223 17647 ft 357 kts 335°
2026-05-06 14:29 18.35376 -76.98311 17192 ft 356 kts 335°
2026-05-06 14:29 18.37619 -76.99406 16774 ft 355 kts 335°
2026-05-06 14:30 18.39859 -77.00500 16369 ft 352 kts 334°
2026-05-06 14:30 18.41919 -77.01872 15881 ft 353 kts 316°
2026-05-06 14:30 18.43380 -77.03915 15497 ft 351 kts 296°
2026-05-06 14:30 18.44087 -77.06355 15102 ft 349 kts 278°
2026-05-06 14:31 18.44292 -77.08886 14688 ft 349 kts 275°
2026-05-06 14:31 18.44458 -77.11431 14232 ft 349 kts 274°
2026-05-06 14:31 18.44624 -77.13975 13804 ft 348 kts 274°
2026-05-06 14:31 18.44798 -77.16503 13381 ft 347 kts 274°
2026-05-06 14:32 18.44978 -77.19044 12998 ft 345 kts 274°
2026-05-06 14:32 18.45154 -77.21551 12634 ft 343 kts 274°
2026-05-06 14:32 18.45328 -77.24040 12232 ft 341 kts 274°
2026-05-06 14:32 18.45503 -77.26517 11785 ft 341 kts 275°
2026-05-06 14:33 18.45679 -77.28982 11372 ft 341 kts 275°
2026-05-06 14:33 18.45859 -77.31470 10970 ft 339 kts 275°
2026-05-06 14:33 18.46037 -77.33948 10587 ft 337 kts 275°
2026-05-06 14:33 18.46212 -77.36388 10172 ft 337 kts 275°
2026-05-06 14:34 18.46386 -77.38829 9781 ft 335 kts 275°
2026-05-06 14:34 18.46558 -77.41264 9333 ft 324 kts 275°
2026-05-06 14:34 18.46721 -77.43574 8929 ft 310 kts 275°
2026-05-06 14:34 18.46878 -77.45782 8604 ft 303 kts 274°
2026-05-06 14:35 18.47035 -77.47988 8443 ft 299 kts 275°
2026-05-06 14:35 18.47189 -77.50166 8160 ft 297 kts 274°
2026-05-06 14:35 18.47338 -77.52290 7926 ft 289 kts 274°
2026-05-06 14:35 18.47485 -77.54380 7709 ft 278 kts 274°
2026-05-06 14:36 18.47625 -77.56371 7535 ft 270 kts 274°
2026-05-06 14:36 18.47759 -77.58295 7393 ft 264 kts 274°
2026-05-06 14:36 18.47893 -77.60204 7253 ft 257 kts 274°
2026-05-06 14:36 18.48024 -77.62077 7123 ft 251 kts 274°
2026-05-06 14:37 18.48147 -77.63867 6991 ft 245 kts 274°
2026-05-06 14:37 18.48271 -77.65638 6807 ft 241 kts 274°
2026-05-06 14:37 18.48394 -77.67404 6570 ft 240 kts 274°
2026-05-06 14:37 18.48514 -77.69142 6318 ft 240 kts 273°
2026-05-06 14:38 18.48636 -77.70892 6089 ft 238 kts 274°
2026-05-06 14:38 18.48755 -77.72617 5844 ft 238 kts 273°
2026-05-06 14:38 18.48875 -77.74367 5584 ft 238 kts 274°
2026-05-06 14:38 18.48994 -77.76088 5344 ft 238 kts 274°
2026-05-06 14:39 18.49112 -77.77818 5103 ft 237 kts 274°
2026-05-06 14:39 18.49233 -77.79559 4869 ft 236 kts 273°
2026-05-06 14:39 18.49350 -77.81271 4625 ft 235 kts 273°
2026-05-06 14:39 18.49467 -77.82993 4380 ft 235 kts 274°
2026-05-06 14:40 18.49584 -77.84689 4193 ft 232 kts 274°
2026-05-06 14:40 18.49700 -77.86379 4053 ft 226 kts 274°
2026-05-06 14:40 18.49811 -77.88003 3916 ft 220 kts 274°
2026-05-06 14:40 18.49920 -77.89598 3771 ft 214 kts 273°
2026-05-06 14:41 18.50007 -77.91141 3572 ft 212 kts 267°
2026-05-06 14:41 18.49836 -77.92679 3344 ft 209 kts 253°
2026-05-06 14:41 18.49356 -77.94094 3112 ft 207 kts 241°
2026-05-06 14:41 18.48711 -77.95451 3004 ft 205 kts 238°
2026-05-06 14:42 18.48066 -77.96748 3026 ft 193 kts 238°
2026-05-06 14:42 18.47456 -77.97980 3005 ft 190 kts 238°
2026-05-06 14:42 18.46847 -77.99223 2997 ft 190 kts 239°
2026-05-06 14:42 18.46245 -78.00463 3001 ft 190 kts 239°
2026-05-06 14:43 18.45643 -78.01717 3001 ft 190 kts 239°
2026-05-06 14:43 18.45052 -78.02956 3001 ft 189 kts 239°
2026-05-06 14:43 18.44454 -78.04208 3008 ft 190 kts 239°
2026-05-06 14:43 18.43859 -78.05452 3007 ft 190 kts 239°
2026-05-06 14:44 18.43278 -78.06705 3002 ft 191 kts 245°
2026-05-06 14:44 18.43037 -78.08073 2992 ft 194 kts 271°
2026-05-06 14:44 18.43317 -78.09458 2999 ft 193 kts 296°
2026-05-06 14:45 18.45115 -78.11387 2998 ft 183 kts 343°
2026-05-06 14:45 18.46328 -78.11707 2998 ft 175 kts
2026-05-06 14:45 18.47516 -78.11584 2994 ft 168 kts 24°
2026-05-06 14:45 18.48552 -78.11087 2988 ft 162 kts 41°
2026-05-06 14:46 18.49370 -78.10287 2984 ft 157 kts 58°
2026-05-06 14:46 18.49902 -78.09294 2991 ft 154 kts 74°
2026-05-06 14:46 18.50123 -78.08211 2991 ft 152 kts 89°
2026-05-06 14:46 18.50032 -78.07108 2985 ft 151 kts 104°
2026-05-06 14:47 18.49706 -78.06065 2989 ft 151 kts 109°
2026-05-06 14:47 18.49341 -78.05012 2993 ft 150 kts 109°
2026-05-06 14:47 18.48981 -78.03987 2994 ft 149 kts 109°
2026-05-06 14:47 18.48622 -78.02952 2828 ft 150 kts 107°
2026-05-06 14:48 18.48309 -78.01919 2556 ft 150 kts 105°
2026-05-06 14:48 18.48040 -78.00851 2330 ft 153 kts 103°
2026-05-06 14:48 18.47812 -77.99749 2128 ft 153 kts 101°
2026-05-06 14:48 18.47680 -77.98641 1918 ft 153 kts 89°
2026-05-06 14:49 18.47870 -77.97543 1714 ft 153 kts 77°
2026-05-06 14:49 18.48235 -77.96492 1544 ft 153 kts 72°
2026-05-06 14:49 18.48647 -77.95461 1223 ft 154 kts 68°
2026-05-06 14:49 18.49110 -77.94430 774 ft 156 kts 71°
2026-05-06 14:50 18.49521 -77.93368 352 ft 157 kts 70°
2026-05-06 14:50 18.49947 -77.92329 75 ft 149 kts 68°
2026-05-06 14:50 18.50344 -77.91400 22 ft 112 kts 69°
2026-05-06 14:50 18.50526 -77.90958 24 ft 42 kts 67°
2026-05-06 14:51 18.50641 -77.90689 24 ft 38 kts 65°
2026-05-06 14:51 18.50727 -77.90489 24 ft 13 kts 60°
2026-05-06 14:51 18.50770 -77.90408 24 ft 12 kts 65°
2026-05-06 14:51 18.50805 -77.90326 24 ft 11 kts 66°
2026-05-06 14:52 18.50834 -77.90248 24 ft 10 kts 79°
2026-05-06 14:52 18.50805 -77.90189 24 ft 9 kts 153°
2026-05-06 14:52 18.50747 -77.90191 24 ft 8 kts 194°
2026-05-06 14:52 18.50698 -77.90205 24 ft 6 kts 200°
2026-05-06 14:53 18.50664 -77.90231 24 ft 6 kts 228°
2026-05-06 14:53 18.50620 -77.90317 24 ft 14 kts 245°
2026-05-06 14:53 18.50579 -77.90412 24 ft 13 kts 246°
2026-05-06 14:53 18.50541 -77.90500 24 ft 12 kts 244°
2026-05-06 14:54 18.50504 -77.90585 24 ft 12 kts 246°
2026-05-06 14:54 18.50471 -77.90664 24 ft 11 kts 246°
2026-05-06 14:54 18.50439 -77.90743 24 ft 11 kts 247°
2026-05-06 14:54 18.50404 -77.90821 24 ft 12 kts 244°
2026-05-06 14:55 18.50352 -77.90934 24 ft 18 kts 244°
2026-05-06 14:55 18.50299 -77.91056 24 ft 18 kts 245°
2026-05-06 14:55 18.50246 -77.91178 25 ft 18 kts 245°
2026-05-06 14:55 18.50193 -77.91299 25 ft 18 kts 245°
2026-05-06 14:56 18.50143 -77.91412 24 ft 9 kts 245°
2026-05-06 14:56 18.50111 -77.91457 25 ft 6 kts 214°
2026-05-06 14:56 18.50072 -77.91466 26 ft 4 kts 173°
2026-05-06 14:56 18.50046 -77.91460 26 ft 2 kts 162°
2026-05-06 14:57 18.50025 -77.91451 26 ft 4 kts 160°
2026-05-06 14:57 18.50005 -77.91443 27 ft 2 kts 158°
2026-05-06 14:57 18.49996 -77.91439 27 ft 1 kts 157°
2026-05-06 14:57 18.49994 -77.91438 27 ft 0 kts 157°